Regional Weather Roundup
Issued by NWS

Home | Current Version | Previous Version | Text Only | Print | Product List | Glossary Off
Versions: 1 2 3 4 5 6 7 8 9 10 11 12 13 14 15 16 17 18 19 20 21 22 23 24 25 26 27 28 29 30 31 32 33 34 35 36 37 38 39 40 41 42 43 44 45 46 47 48 49 50

000
ASUS45 KABQ 172210
RWRNM
NEW MEXICO REGIONAL WEATHER ROUNDUP
NATIONAL WEATHER SERVICE ALBUQUERQUE NM
400 PM MDT THU AUG 17 2017

NOTE: "FAIR" MEANS FEW OR NO CLOUDS BELOW 12,000 FEET AGL WITH NO
       SIGNIFICANT WEATHER OR OBSTRUCTIONS TO VISION.

      THIS PRODUCT IS RELEASED AS TWO VERSIONS.  ONE VERSION NEAR
      THE TOP OF THE HOUR CONTAINING PRELIMINARY DATA FROM ALBUQUERQUE
      AND OTHER STATIONS.  A FINAL VERSION WITH ADDITIONAL DATA IS
      ISSUED ABOUT 10 MINUTES AFTER THE HOUR.

NMZ501-503-504-510>518-172300-
NORTHWEST PLATEAU/NORTHCENTRAL MOUNTAINS

CITY           SKY/WX    TMP DP  RH WIND       PRES   REMARKS
FARMINGTON     FAIR      86  31  13 W10       30.17F
LOS ALAMOS     FAIR      76  36  23 N5        30.33S
SANTA FE       FAIR      82  32  16 S3        30.24F
TAOS           FAIR      80  34  19 NW12      30.32F
ANGEL FIRE     FAIR      72  35  25 W20G28    30.41S

$$
NMZ402-403-502-505>509-172300-
WESTCENTRAL MOUNTAINS/SOUTHWEST MOUNTAINS

CITY           SKY/WX    TMP DP  RH WIND       PRES   REMARKS
GALLUP         FAIR      83  26  12 VRB3      30.26F
GRANTS         FAIR      82  29  14 CALM      30.26F
SILVER CITY    FAIR      86  41  20 SW13G23   30.19F

$$
NMZ407-409-411-412-172300-
SOUTHERN DESERTS

CITY           SKY/WX    TMP DP  RH WIND       PRES   REMARKS
DEMING         FAIR      93  44  18 SW12      30.10F
LAS CRUCES     PTSUNNY   95  38  13 W13       30.11F
HOLLOMAN AFB   FAIR      96  41  14 NW6       30.09F
ALAMOGORDO     FAIR      93  39  15 NW6       30.09F
T OR C         FAIR      92  38  15 VRB6      30.11F

$$
NMZ519>523-172300-
CENTRAL VALLEYS/CENTRAL HIGHLANDS

CITY           SKY/WX    TMP DP  RH WIND       PRES   REMARKS
ALBUQUERQUE    FAIR      90  33  13 SW14      30.17F
DOUBLE EAGLE   PTSUNNY   88  37  16 S8        30.21F
MORIARTY ARPT  FAIR      87  35  15 CALM      30.24F
CLINES CORNERS FAIR      82  35  18 W8        30.30F
BELEN          FAIR      91  32  12 S7        30.16F
SOCORRO        FAIR      92  32  12 E9G16     30.12F

$$
NMZ524>526-539-540-172300-
SOUTHCENTRAL MOUNTAINS

CITY           SKY/WX    TMP DP  RH WIND       PRES   REMARKS
RUIDOSO        FAIR      81  41  24 W13G21    30.31F

$$
NMZ527>531-172300-
NORTHEAST HIGHLANDS/NORTHEAST PLAINS

CITY           SKY/WX    TMP DP  RH WIND       PRES   REMARKS
LAS VEGAS      FAIR      77  45  32 S13G24    30.28F
RATON          FAIR      80  46  30 S15       30.22F
CLAYTON        FAIR      84  56  38 S9        30.14F

$$
NMZ532>537-172300-
EASTCENTRAL PLAINS

CITY           SKY/WX    TMP DP  RH WIND       PRES   REMARKS
SANTA ROSA     FAIR      91  41  17 S12G24    30.11F
TUCUMCARI      FAIR      94  52  24 S12       30.04F
CANNON AFB     MOSUNNY   87  63  45 S16       30.13F
CLOVIS AIRPORT FAIR      82  64  54 S8        30.12F

$$
NMZ028-029-538-172300-
SOUTHEAST PLAINS

CITY           SKY/WX    TMP DP  RH WIND       PRES   REMARKS
ROSWELL        FAIR      98  47  17 S14       30.04F
ARTESIA        FAIR      95  48  20 S12       30.04F
CARLSBAD       FAIR      93  55  27 CALM      30.01F
HOBBS          MOSUNNY   91  57  31 SE10      30.06F


$$




USA.gov is the U.S. government's official web portal to all federal, state and local government web resources and services.